Zurück zum Katalog

CZ-6A DEB

AktivPO
NORAD 61315·DEBRIS·🇨🇳 China

Gestartet Aug 6, 2024 von Taiyuan Satellite Launch Center

Loading…

Nächste Überflüge (nächste 24 Stunden)

TLE

AktuellSource: Space-Track

Epoche: Sep 13, 2026, 22:44 UTC

1 61315U 24140UC  26256.94724849  .00008463  00000-0  11656-2 0  9997
2 61315  88.9451 252.9329 0064983 281.7587  77.6350 14.76688940109273

Verfolge CZ-6A DEB in Echtzeit mit AllMySat

Download on the App Store